Back to catalog

BREEZE-M DEB

TANK

AliveHEO
NORAD 39129·DEBRIS·🇷🇺 Russia

Launched Apr 15, 2013 from Baikonur Cosmodrome

Loading…

Next Passes (next 24 hours)

TLE

FreshSource: Space-Track

Epoch: Sep 14, 2026, 08:34 UTC

1 39129U 13014C   26257.35733207  .00001176  00000-0  44562-3 0  9994
2 39129  49.4309  35.3898 5838053  81.9391 336.9127  4.25187539193530

Track BREEZE-M DEB in real time with AllMySat

Download on the App Store